[[{"header":{"parameterUnit":"m.s-1","parameterCategory":1,"la1":30.2991,"la2":30.254,"lo1":-89.0895,"lo2":-89.0444,"dy":0.0017,"dx":0.0017,"nx":28,"ny":28,"refTime":"2023-06-28T21:00:00:Z","depth":0,"parameterNumber":2,"parameterNumberName":"U-component_of_WINDS"},"data":[0,0,0,0,0,0,0,0,0,0,0,0,0,0,0,0,0,0,0,0,0,0,0,0,0,0,0,0,0,0,0,0,0,0,0,0,0,0,0,0,0,0,0,0,0,0,0,0,0,0,0,0,0,0,0,0,0,0,-0.6698,-0.6697,0,-0.6589,-0.6588,-0.6586,-0.652,-0.652,-0.6519,-0.6519,-0.6405,-0.6403,-0.64,0,0,0,0,0,0,0,0,0,0,0,0,0,-0.6849,-0.6847,-0.6699,-0.6697,-0.6696,-0.6589,-0.6588,-0.6586,-0.652,-0.652,-0.6519,-0.6519,-0.6406,-0.6403,-0.64,0,0,0,0,0,0,0,0,0,0,0,0,0,-0.6766,-0.6846,-0.6699,-0.665,-0.6645,-0.6589,-0.6587,-0.6586,-0.652,-0.652,-0.6519,-0.6519,-0.6407,-0.6403,-0.6399,-0.6383,0,0,-0.6387,-0.6385,0,0,0,0,0,0,0,0,-0.6771,-0.6761,-0.6659,-0.6653,-0.6647,-0.6568,-0.6599,-0.6518,-0.652,-0.6567,-0.6519,-0.6519,-0.646,-0.6451,-0.6432,-0.6378,-0.6373,-0.6386,-0.6384,-0.6382,-0.6381,0,0,0,0,0,0,0,-0.6777,-0.6765,-0.6655,-0.6657,-0.665,-0.6633,-0.6621,-0.6583,-0.6517,-0.6563,-0.6558,-0.6546,-0.6456,-0.6436,-0.6428,-0.6372,-0.6386,-0.6383,-0.638,-0.6379,-0.6298,-0.6298,0,0,0,0,0,0,-0.679,-0.677,-0.6659,-0.6652,-0.6709,-0.6631,-0.6617,-0.6594,-0.6518,-0.6506,-0.6547,-0.6544,-0.6443,-0.6433,-0.6424,-0.64,-0.6382,-0.6378,-0.6376,-0.6298,-0.6298,-0.6299,0,0,0,0,0,0,-0.6794,-0.6781,-0.6663,-0.671,-0.6693,-0.6629,-0.6603,-0.6592,-0.6571,-0.6505,-0.6493,-0.6538,-0.6442,-0.643,-0.6394,-0.6395,-0.6376,-0.6373,-0.6297,-0.6298,-0.6298,-0.6351,0,0,0,0,0,0,-0.6799,-0.6783,-0.6777,-0.671,-0.6691,-0.6635,-0.6603,-0.659,-0.6564,-0.6559,-0.6494,-0.6482,-0.6441,-0.64,-0.639,-0.6389,-0.637,-0.6297,-0.6298,-0.6298,-0.6349,-0.6354,-0.6357,0,0,0,0,0,-0.6804,-0.6796,-0.6777,-0.6764,-0.6682,-0.6636,-0.6625,-0.6578,-0.6565,-0.6557,-0.6515,-0.6484,-0.6397,-0.6397,-0.6385,-0.6383,-0.6297,-0.6297,-0.6298,-0.6347,-0.6353,-0.6357,0,0,0,0,0,0,-0.6864,-0.6786,-0.6764,-0.6734,-0.6692,-0.6624,-0.6614,-0.6585,-0.6545,-0.6542,-0.6485,-0.6471,-0.644,-0.6408,-0.641,-0.6363,-0.6343,-0.6341,-0.6385,-0.6389,-0.6393,-0.6401,-0.6366,0,0,0,0,0,-0.6874,-0.6843,-0.6777,-0.6757,-0.6737,-0.6679,-0.6657,-0.6625,-0.6578,-0.656,-0.6515,-0.6471,-0.6433,-0.641,-0.6371,-0.6344,-0.6329,-0.6337,-0.6341,-0.6345,-0.6343,-0.6326,-0.6328,-0.6301,-0.6301,-0.6301,0,0,-0.6894,-0.6847,-0.6831,-0.6767,-0.6731,-0.67,-0.6665,-0.6633,-0.6609,-0.6555,-0.6518,-0.6484,-0.643,-0.6399,-0.6383,-0.6371,-0.6348,-0.6345,-0.6349,-0.6346,-0.6327,-0.6329,-0.6332,-0.6301,-0.6301,-0.6301,0,0,-0.6914,-0.6876,-0.6855,-0.6819,-0.6764,-0.6726,-0.6721,-0.6657,-0.6632,-0.6594,-0.6553,-0.6523,-0.646,-0.6423,-0.6397,-0.6402,-0.6372,-0.6391,-0.6412,-0.6396,-0.6398,-0.6399,-0.64,-0.6402,-0.6391,-0.6391,-0.6391,0,-0.6945,-0.6897,-0.6847,-0.6818,-0.679,-0.6741,-0.6718,-0.6685,-0.6621,-0.6603,-0.6591,-0.651,-0.6471,-0.6429,-0.643,-0.6411,-0.6402,-0.6398,-0.6402,-0.6403,-0.6403,-0.6404,-0.6404,-0.6393,-0.6393,-0.6393,-0.6393,0,-0.6938,-0.6905,-0.6894,-0.6833,-0.6804,-0.6779,-0.6725,-0.6701,-0.6671,-0.6634,-0.6596,-0.6547,-0.6497,-0.6485,-0.6456,-0.6439,-0.6434,-0.6413,-0.6392,-0.641,-0.6409,-0.6408,-0.6397,-0.6396,-0.6396,-0.6395,0,0,-0.6992,-0.6904,-0.6901,-0.6872,-0.6807,-0.6781,-0.6752,-0.6704,-0.6685,-0.6642,-0.6616,-0.6564,-0.6543,-0.6513,-0.6479,-0.6464,-0.6471,-0.6445,-0.6442,-0.645,-0.6448,-0.6464,-0.6465,-0.6451,-0.645,-0.645,-0.6452,0,-0.7002,-0.6949,-0.6903,-0.6867,-0.6835,-0.6787,-0.6762,-0.6719,-0.6684,-0.6651,-0.6611,-0.6575,-0.6551,-0.6533,-0.6516,-0.6474,-0.6469,-0.6473,-0.6425,-0.6424,-0.6439,-0.6465,-0.6481,-0.6486,-0.6452,-0.6452,-0.6452,0,-0.7006,-0.6965,-0.6926,-0.6863,-0.6848,-0.6827,-0.6779,-0.6748,-0.6699,-0.6674,-0.664,-0.6604,-0.6571,-0.6554,-0.6507,-0.651,-0.6488,-0.6464,-0.6463,-0.6456,-0.6438,-0.6458,-0.6486,-0.6487,-0.6451,-0.6451,-0.6451,0,-0.7049,-0.6984,-0.6951,-0.6928,-0.6855,-0.6841,-0.681,-0.676,-0.6734,-0.6691,-0.6674,-0.6628,-0.6603,-0.6568,-0.6521,-0.6513,-0.6478,-0.6458,-0.6456,-0.6457,-0.645,-0.6451,-0.6475,-0.6437,-0.6437,-0.6437,-0.6437,0,-0.7064,-0.7042,-0.6969,-0.695,-0.6922,-0.687,-0.6844,-0.6809,-0.6765,-0.6736,-0.6692,-0.6666,-0.6605,-0.6572,-0.6534,-0.65,-0.649,-0.6468,-0.6458,-0.6471,-0.6474,-0.6455,-0.6453,-0.6437,-0.6437,-0.6437,-0.6437,0,-0.7107,-0.7058,-0.7019,-0.6953,-0.6936,-0.6919,-0.6862,-0.684,-0.6802,-0.6767,-0.6755,-0.6695,-0.6654,-0.6603,-0.6545,-0.652,-0.6489,-0.6475,-0.6506,-0.65,-0.6501,-0.6501,-0.6512,-0.6511,-0.6476,-0.6477,-0.6477,0,-0.712,-0.7101,-0.7033,-0.7011,-0.6981,-0.6946,-0.6919,-0.6866,-0.684,-0.6781,-0.6767,-0.6722,-0.6683,-0.6619,-0.6569,-0.6525,-0.6508,-0.6515,-0.6501,-0.6515,-0.6507,-0.6508,-0.6506,-0.6519,-0.6519,-0.652,-0.652,0,-0.7147,-0.7124,-0.7086,-0.704,-0.7009,-0.697,-0.693,-0.6914,-0.6853,-0.6825,-0.6782,-0.6752,-0.6693,-0.6648,-0.6597,-0.6564,-0.6532,-0.6525,-0.6522,-0.6535,-0.6554,-0.6543,-0.6515,-0.6525,-0.6525,-0.6524,-0.6524,-0.6524,-0.7175,-0.7155,-0.7104,-0.7064,-0.7027,-0.699,-0.6966,-0.6925,-0.6888,-0.6836,-0.6807,-0.6765,-0.6714,-0.6642,-0.6611,-0.6576,-0.6564,-0.656,-0.6559,-0.6559,-0.6562,-0.656,-0.6567,-0.6566,-0.6566,-0.6566,-0.6566,0,-0.7199,-0.7163,-0.7127,-0.7071,-0.7039,-0.7012,-0.6965,-0.694,-0.6903,-0.6859,-0.6822,-0.6772,-0.6728,-0.6676,-0.6628,-0.6611,-0.6595,-0.66,-0.66,-0.6593,-0.6576,-0.6583,-0.6614,-0.6614,-0.6614,-0.6614,-0.6614,-0.6614,-0.7208,-0.7173,-0.7144,-0.709,-0.7055,-0.7013,-0.6988,-0.6953,-0.6918,-0.6864,-0.6828,-0.6794,-0.6746,-0.6695,-0.6653,-0.6639,-0.6623,-0.6633,-0.6614,-0.6599,-0.6595,-0.6591,-0.6597,-0.663,-0.663,-0.6634,-0.6634,-0.6634]},{"header":{"parameterUnit":"m.s-1","parameterCategory":1,"la1":30.2991,"la2":30.254,"lo1":-89.0895,"lo2":-89.0444,"dy":0.0017,"dx":0.0017,"nx":28,"ny":28,"refTime":"2023-06-28T21:00:00:Z","depth":0,"parameterNumber":3,"parameterNumberName":"V-component_of_WINDS"},"data":[0,0,0,0,0,0,0,0,0,0,0,0,0,0,0,0,0,0,0,0,0,0,0,0,0,0,0,0,0,0,0,0,0,0,0,0,0,0,0,0,0,0,0,0,0,0,0,0,0,0,0,0,0,0,0,0,0,0,2.6259,2.6258,0,2.624,2.624,2.624,2.6226,2.6226,2.6226,2.6226,2.6205,2.6205,2.6204,0,0,0,0,0,0,0,0,0,0,0,0,0,2.6281,2.628,2.6259,2.6258,2.6258,2.624,2.624,2.624,2.6226,2.6226,2.6226,2.6226,2.6205,2.6205,2.6204,0,0,0,0,0,0,0,0,0,0,0,0,0,2.6268,2.628,2.6259,2.6249,2.6248,2.624,2.624,2.624,2.6226,2.6226,2.6226,2.6226,2.6205,2.6205,2.6204,2.6203,0,0,2.6202,2.6202,0,0,0,0,0,0,0,0,2.6268,2.6267,2.6251,2.625,2.6249,2.6235,2.624,2.6227,2.6226,2.6235,2.6226,2.6226,2.6215,2.6214,2.621,2.6202,2.6201,2.6202,2.6201,2.6201,2.6201,0,0,0,0,0,0,0,2.6269,2.6267,2.6251,2.6251,2.6249,2.6246,2.6244,2.6238,2.6226,2.6234,2.6233,2.6231,2.6214,2.6211,2.621,2.6201,2.6202,2.6201,2.6201,2.6201,2.6191,2.6191,0,0,0,0,0,0,2.6272,2.6268,2.6252,2.6251,2.6258,2.6245,2.6243,2.624,2.6226,2.6224,2.6231,2.6231,2.6212,2.6211,2.6209,2.6208,2.6201,2.62,2.62,2.6191,2.6191,2.6192,0,0,0,0,0,0,2.6272,2.6271,2.6253,2.6259,2.6257,2.6245,2.6242,2.624,2.6236,2.6224,2.6222,2.623,2.6212,2.621,2.6205,2.6207,2.62,2.62,2.6191,2.6191,2.6191,2.6205,0,0,0,0,0,0,2.6273,2.6271,2.6271,2.6259,2.6256,2.6249,2.6242,2.6239,2.6235,2.6234,2.6222,2.622,2.6212,2.6206,2.6204,2.6206,2.6199,2.6191,2.6191,2.6191,2.6204,2.6205,2.6206,0,0,0,0,0,2.6274,2.6274,2.6271,2.6269,2.6256,2.6249,2.6248,2.6239,2.6236,2.6235,2.6227,2.622,2.6207,2.6206,2.6203,2.6205,2.6191,2.6191,2.6191,2.6203,2.6205,2.6206,0,0,0,0,0,0,2.6285,2.6273,2.6268,2.6265,2.6259,2.6247,2.6246,2.6241,2.6234,2.6233,2.6222,2.6219,2.6216,2.6209,2.6208,2.6203,2.6198,2.6198,2.6208,2.6209,2.621,2.6212,2.6198,0,0,0,0,0,2.6287,2.6283,2.6273,2.6271,2.6268,2.6258,2.6254,2.6248,2.6241,2.6238,2.6229,2.6222,2.6216,2.6212,2.6206,2.6203,2.62,2.6203,2.6204,2.6205,2.6205,2.6204,2.6205,2.6193,2.6193,2.6193,0,0,2.6291,2.6284,2.6282,2.6273,2.6267,2.6263,2.6255,2.6251,2.6248,2.6237,2.6232,2.6226,2.6216,2.6213,2.621,2.6207,2.6208,2.6205,2.6206,2.6206,2.6205,2.6206,2.6207,2.6193,2.6193,2.6193,0,0,2.6297,2.6291,2.629,2.6284,2.6276,2.6269,2.6269,2.6259,2.6254,2.625,2.6241,2.6237,2.6227,2.6221,2.6216,2.6221,2.6215,2.6219,2.6226,2.6225,2.6226,2.6227,2.6229,2.623,2.622,2.622,2.622,0,2.6304,2.6298,2.6289,2.6286,2.6283,2.6273,2.6271,2.6266,2.6256,2.6253,2.625,2.6238,2.6231,2.6226,2.6228,2.6224,2.6223,2.6221,2.6227,2.6227,2.6228,2.623,2.6231,2.622,2.622,2.622,2.622,0,2.6306,2.6303,2.6302,2.6294,2.629,2.6287,2.6278,2.6275,2.627,2.6263,2.6259,2.625,2.6243,2.6241,2.6235,2.6236,2.6234,2.6229,2.6223,2.623,2.6232,2.6233,2.6221,2.6221,2.6221,2.6221,0,0,2.6318,2.6306,2.6306,2.6303,2.6293,2.629,2.6287,2.628,2.6278,2.6272,2.6269,2.6261,2.6257,2.6252,2.6245,2.6244,2.625,2.6239,2.6239,2.6242,2.6251,2.6256,2.6257,2.6246,2.6246,2.6246,2.6252,0,2.6323,2.6319,2.6311,2.6309,2.6306,2.6297,2.6294,2.6288,2.6282,2.6278,2.6272,2.6267,2.6261,2.6258,2.6257,2.625,2.6252,2.6249,2.6243,2.6243,2.6247,2.6258,2.6262,2.6269,2.6253,2.6253,2.6253,0,2.6328,2.6323,2.6321,2.6313,2.6311,2.6309,2.6303,2.6299,2.6292,2.6288,2.6283,2.6277,2.6273,2.6268,2.6263,2.6262,2.6259,2.6255,2.6255,2.6254,2.6249,2.6258,2.627,2.6272,2.6254,2.6254,2.6254,0,2.6338,2.6331,2.6329,2.6326,2.6316,2.6315,2.6311,2.6303,2.63,2.6295,2.6293,2.6287,2.6283,2.6279,2.627,2.6267,2.6267,2.626,2.6263,2.6264,2.6264,2.6264,2.6277,2.6261,2.6261,2.6261,2.6261,0,2.6345,2.6344,2.6333,2.6332,2.6331,2.6322,2.6321,2.6316,2.631,2.6308,2.6299,2.6297,2.6286,2.6282,2.6275,2.6273,2.6271,2.6268,2.6267,2.6269,2.627,2.6268,2.6267,2.6261,2.6261,2.6261,2.6261,0,2.6356,2.6349,2.6346,2.6337,2.6335,2.6335,2.6327,2.6325,2.632,2.6317,2.6315,2.6306,2.6301,2.6293,2.6285,2.6281,2.628,2.6277,2.6283,2.6282,2.6286,2.6286,2.6298,2.63,2.6283,2.6283,2.6283,0,2.6361,2.636,2.6352,2.635,2.6346,2.6343,2.634,2.6332,2.6329,2.6322,2.6321,2.6316,2.6312,2.6305,2.6298,2.6292,2.6289,2.6294,2.6288,2.6292,2.629,2.6291,2.6291,2.6295,2.6295,2.6295,2.6296,0,2.6371,2.6367,2.6364,2.636,2.6357,2.6353,2.6348,2.6347,2.6337,2.6335,2.6331,2.6328,2.6321,2.6317,2.631,2.6305,2.6299,2.6297,2.6298,2.6301,2.6305,2.6304,2.6287,2.6297,2.6297,2.6297,2.6297,2.6297,2.6379,2.6378,2.6373,2.637,2.6366,2.6362,2.636,2.6355,2.6352,2.6346,2.6341,2.6338,2.6331,2.6323,2.6318,2.6315,2.6312,2.6313,2.6313,2.6314,2.6315,2.6305,2.6314,2.6314,2.6314,2.6314,2.6314,0,2.6389,2.6385,2.6382,2.6377,2.6375,2.637,2.6365,2.6363,2.636,2.6355,2.6352,2.6347,2.6343,2.6336,2.6331,2.633,2.6327,2.6329,2.633,2.6329,2.6318,2.6318,2.6332,2.6332,2.6332,2.6332,2.6332,2.6332,2.6394,2.6393,2.6389,2.6387,2.6383,2.638,2.6378,2.6374,2.637,2.6367,2.6363,2.6359,2.6353,2.6348,2.6344,2.6342,2.6341,2.6344,2.6341,2.6331,2.6329,2.6328,2.6328,2.6344,2.6344,2.6352,2.6352,2.6352]}]]